sat.trackr.live / text

‹ back to catalog

COSMOS 2566

NORAD 54383 · 2022-163C

PAYLOAD ACTIVE UNKNOWN

§ Identity

Operator
Country
CIS
Launch date
2022-11-30
Launch site
PLMSC
Launch vehicle
Mass (kg)
RCS (m²)

External: N2YO · Heavens-Above · Gunter

§ Orbital elements

Epoch: 2026-05-25T04:31:00.498144Z

Period
103.03 min
Inclination
67.1406°
Eccentricity
0.0001933
Mean motion
13.97707833 rev/d
Perigee alt
900.3 km
Apogee alt
903.2 km
Semi-major
7,279.9 km
B*
5.5594e-5
RAAN
158.1077°
Arg perigee
122.3766°
Mean anomaly
237.7506°
Rev number
17,735

§ Raw data

COSMOS 25661 54383U 22163C   26145.18820021  .00000003  00000+0  55594-4 0  99912 54383  67.1406 158.1077 0001933 122.3766 237.7506 13.97707833177352

JSON: /api/v1/satellites/54383 · /tle

For live sub-satellite position, see the globe view (requires WebGL).

§ Visibility from observer

Set your observer location to see the next 7 days of passes ≥ 10°. The values pass through the URL so the page stays shareable.

No JS? Fill the form by hand. The geolocation button needs JavaScript.